GFSNGP_prec_cthk_273.txt.gz
RH
31 36 35 32 30 38 43 37 48 28 31 22 21 26 26 30 29 29 25 20 17 17 19 26 34 43 67 82 88 93 93 95 93 88 87 88 88 86 82 76 75 69 64 61
37 44 39 38 35 39 39 38 36 36 35 27 32 35 39 40 39 32 27 23 18 16 16 17 32 40 53 72 84 91 96 95 96 92 91 96 93 90 90 85 81 72 69 66
47 51 51 52 39 42 43 40 45 47 40 44 43 50 56 52 48 40 33 27 22 20 21 22 26 32 48 65 79 85 95 93 98 98 98 98 97 96 94 89 88 79 77 77
58 62 68 41 49 54 55 49 54 55 51 53 56 58 58 55 48 45 42 34 29 25 20 23 30 36 42 59 73 81 88 93 92 95 98 96 92 89 83 80 75 77 78 75
77 70 54 45 51 54 65 59 65 65 62 60 61 61 57 56 51 48 46 40 34 27 23 26 30 44 49 55 69 77 87 94 95 93 94 96 89 83 92 86 78 78 76 76
73 84 74 53 57 71 76 61 64 62 63 71 71 67 60 59 55 51 46 41 36 29 25 25 27 43 52 61 68 77 84 84 97 94 97 90 95 89 82 78 92 87 76 70
65 74 61 45 48 62 76 53 60 72 76 80 80 70 58 57 56 54 48 45 39 33 30 30 31 39 51 64 71 76 81 84 93 87 89 91 96 93 87 86 78 69 66 64
62 72 71 52 61 71 60 58 64 74 72 82 73 60 53 51 53 51 50 51 44 37 34 36 38 41 53 63 76 79 85 91 90 85 95 96 94 84 75 68 64 60 54 50
64 56 49 60 68 71 73 72 64 63 57 56 52 50 51 50 54 53 55 54 49 42 38 43 48 48 56 63 77 85 89 98 87 90 93 85 76 67 59 54 46 40 35 31
74 61 65 77 76 78 80 81 78 76 74 73 67 62 57 57 54 57 61 59 55 47 42 47 57 65 66 70 85 94 96 91 95 86 75 67 60 55 49 41 34 31 31 29
79 73 79 84 87 87 87 87 88 86 84 83 81 74 71 67 58 61 64 62 59 50 48 51 65 74 76 87 89 97 96 89 77 69 63 55 50 43 40 35 31 27 24 22
87 89 94 90 99 99 98 96 92 91 90 88 86 85 83 77 70 63 67 68 60 55 51 56 73 84 86 96 94 88 79 73 68 61 54 49 44 40 33 28 24 21 18 17
96 96 97 93 89 95 95 98 98 98 93 92 93 94 91 88 79 70 71 68 64 58 55 62 87 95 96 92 81 75 68 62 55 50 45 42 34 29 25 20 18 17 17 17
98 94 79 80 86 97 98 97 95 98 98 97 96 96 94 88 80 75 72 68 63 60 63 86 97 96 91 79 70 63 56 51 44 41 35 29 23 18 17 16 16 17 17 17
94 94 91 85 95 98 97 97 97 97 98 99 93 94 87 81 78 74 72 69 65 68 93 97 91 83 73 66 58 51 43 39 35 30 24 19 18 17 16 17 17 17 17 17
91 88 76 72 89 89 91 94 95 96 98 98 88 78 79 78 75 73 71 69 83 96 97 87 80 74 61 54 45 40 33 31 22 19 19 18 17 17 17 16 15 14 13 14
91 83 67 66 74 85 88 90 93 90 83 76 78 76 73 72 72 74 86 97 97 91 84 78 67 56 46 38 33 30 23 20 19 18 18 18 17 14 13 12 11 11 10 11
94 96 89 79 68 64 62 63 66 69 72 72 71 74 79 88 94 97 97 96 89 82 68 56 47 39 33 27 23 21 19 18 18 18 16 14 12 11 10 10 10 10 11 11
91 96 96 91 88 83 80 81 87 87 88 93 96 97 97 97 97 97 96 84 65 52 47 39 30 24 23 22 20 19 18 18 17 14 12 11 10 10 10 11 11 11 11 12
83 91 95 95 97 97 97 97 97 97 97 97 97 97 96 97 97 88 69 54 46 38 30 25 24 23 21 20 19 19 17 14 12 12 11 11 12 12 12 11 11 12 13 13
78 83 88 93 95 96 95 95 97 96 95 96 97 97 97 91 71 56 45 36 33 26 25 23 22 21 20 20 18 15 13 12 12 12 12 12 13 12 12 13 13 14 14 14
73 78 83 87 90 92 94 96 95 96 96 96 96 88 70 58 49 42 36 27 26 25 23 22 21 21 19 16 14 14 14 14 14 14 14 13 13 13 14 14 15 15 15 15
58 62 66 74 80 84 87 89 89 87 80 66 54 45 37 34 33 28 24 25 24 23 22 21 20 18 16 15 16 16 16 16 16 15 15 14 14 15 15 15 15 16 17 18
48 48 51 56 61 66 66 66 61 55 51 47 45 45 43 38 31 26 26 25 24 23 20 19 18 17 17 17 17 17 17 17 17 17 16 16 16 17 17 17 17 17 19 20
38 37 38 40 41 43 47 47 43 43 41 38 35 34 31 26 25 25 26 25 24 22 19 18 16 16 17 17 18 18 19 19 18 18 18 18 17 18 18 18 19 19 19 21
31 31 30 29 27 27 28 31 36 39 40 41 39 36 34 34 32 30 26 24 23 22 20 17 16 17 18 18 19 19 20 21 21 20 19 19 19 19 19 20 20 21 21 22
29 30 30 29 29 29 29 29 28 27 32 41 40 43 38 37 35 31 28 25 25 24 22 18 18 18 17 18 20 21 22 22 22 21 21 20 19 19 19 20 20 22 22 23

GFSNGP_prec_cthk_276.txt.gz
RH
29 29 30 30 34 45 43 37 51 37 39 38 33 42 37 41 40 44 40 37 32 26 23 20 20 23 27 36 44 55 77 83 93 99 97 99 96 92 89 87 89 90 90 86
33 29 27 30 30 35 36 40 49 56 52 57 57 59 55 51 56 53 48 43 38 34 29 24 23 26 32 36 45 54 68 84 88 91 96 93 98 99 96 98 95 91 87 85
34 31 36 44 34 31 31 33 45 53 61 64 68 64 62 74 67 63 56 48 46 44 39 32 29 27 35 44 45 56 65 75 85 87 97 99 98 99 98 96 94 94 96 91
42 43 52 36 32 32 36 44 48 56 61 68 68 63 64 71 71 66 62 57 50 48 43 38 33 28 34 48 52 53 64 68 82 87 92 98 98 98 96 90 88 86 80 74
58 46 37 38 34 34 38 40 49 52 57 55 57 58 66 76 73 68 67 63 57 54 48 43 36 32 36 45 52 59 59 69 77 92 94 96 98 98 97 94 95 96 91 88
58 69 59 35 45 45 49 46 52 58 53 57 61 67 74 81 71 64 61 63 58 53 53 44 39 38 38 44 53 61 66 68 75 92 91 98 97 97 98 97 91 83 74 66
67 74 62 57 61 65 71 60 64 64 65 65 63 62 68 72 68 69 67 65 64 59 54 49 45 43 47 47 55 61 70 76 78 86 85 96 97 97 91 85 81 76 68 65
61 72 79 65 71 77 77 79 80 79 79 78 70 66 62 67 68 62 59 61 63 57 55 53 49 52 53 52 58 62 69 81 88 84 85 93 89 77 77 71 66 64 62 55
65 60 61 70 77 80 82 82 83 88 89 88 81 73 69 66 64 62 61 67 62 60 59 56 53 56 62 62 65 69 71 78 88 87 80 79 71 60 64 61 59 59 53 47
67 66 72 80 83 91 96 97 95 95 90 91 93 83 80 80 79 75 72 62 60 63 64 61 58 62 70 72 75 78 77 81 87 82 78 69 57 56 55 56 54 51 49 43
73 76 72 84 88 87 83 92 93 96 98 96 94 94 88 88 87 87 76 66 64 69 68 64 62 66 76 81 83 85 83 79 80 73 67 65 60 54 46 42 37 35 32 28
79 85 96 87 80 79 91 98 97 94 97 98 98 96 94 95 93 91 86 76 72 74 70 65 64 68 83 87 88 90 84 81 78 72 65 60 51 44 36 34 32 25 20 20
82 89 90 83 72 85 86 94 97 96 97 97 98 98 99 97 96 93 88 81 75 75 70 66 65 75 97 94 86 78 72 68 61 59 54 52 46 42 40 29 22 21 20 19
78 87 78 75 65 73 82 88 94 95 95 98 95 97 98 98 99 94 87 78 76 74 69 68 73 92 91 82 73 66 57 52 46 43 38 38 37 33 29 28 26 22 16 16
79 86 86 76 69 71 79 85 90 94 95 98 98 98 98 99 90 81 77 77 76 72 71 77 91 86 77 67 57 51 44 38 35 32 28 30 27 23 22 21 20 19 16 11
74 82 86 74 68 64 65 73 86 91 95 98 97 98 89 76 76 79 79 76 76 78 87 90 83 74 63 55 46 40 34 29 24 25 24 19 17 17 16 16 17 16 13 9
68 75 81 82 75 70 62 61 64 66 70 74 72 73 75 76 74 74 82 93 95 96 89 76 66 53 45 40 34 27 24 20 19 17 15 14 13 15 17 14 11 11 10 9
67 75 80 88 87 86 85 79 74 74 75 77 76 76 80 86 91 96 97 97 93 82 69 57 46 39 33 26 23 19 17 16 14 13 13 14 16 12 11 13 12 10 10 11
65 72 77 83 91 90 91 92 93 95 96 97 97 96 96 97 97 97 96 85 72 59 50 40 32 26 22 19 17 16 15 14 14 14 15 13 12 11 11 11 11 12 13 12
64 68 74 77 86 90 88 89 90 92 93 95 96 96 96 97 96 81 60 50 44 36 27 22 19 18 18 17 15 15 15 15 15 14 13 12 12 11 12 12 12 12 12 12
65 68 72 75 78 83 88 88 88 89 91 93 95 95 91 79 62 52 41 34 27 22 20 18 18 18 16 15 15 16 16 15 14 13 13 13 13 13 13 13 13 13 14 14
56 63 71 77 80 83 87 91 92 92 93 94 87 69 59 51 42 34 28 23 23 21 20 18 16 15 16 16 17 16 16 15 15 15 15 14 14 14 14 14 14 15 16 16
46 49 53 63 73 76 80 82 82 79 64 54 51 43 37 34 31 25 22 23 22 20 18 16 15 16 16 16 17 17 17 17 17 17 16 15 15 15 15 15 15 16 17 18
41 42 41 44 48 49 52 59 56 49 45 46 47 43 34 27 23 23 23 22 20 16 14 14 14 15 16 17 18 19 19 19 19 18 17 17 16 16 17 17 17 17 18 19
33 33 33 34 35 32 29 29 31 34 40 39 36 34 30 27 27 24 24 24 20 17 16 16 15 17 17 19 20 21 21 21 19 19 18 17 17 17 17 18 18 18 18 19
26 27 28 28 28 30 31 32 30 28 31 37 39 36 37 32 32 31 26 24 23 19 17 16 17 17 18 21 22 23 23 21 20 19 18 19 18 18 18 18 18 18 19 19
26 27 27 27 28 29 30 31 31 28 29 31 39 44 43 38 35 32 26 24 23 20 18 19 17 17 19 22 24 25 24 23 21 20 19 20 19 19 18 18 19 19 19 20

GFSNGP_prec_cthk_279.txt.gz
RH
24 21 22 23 21 21 26 31 36 29 29 33 33 40 49 47 53 66 74 72 72 65 60 58 49 38 29 26 38 44 44 49 65 76 74 80 82 89 93 96 97 96 94 91
26 21 21 21 22 23 29 35 34 34 33 36 40 44 52 48 51 66 75 79 70 67 64 63 56 48 37 28 37 46 50 52 60 78 80 82 84 84 96 98 98 98 99 98
26 25 27 31 29 30 31 38 41 44 43 45 49 51 51 51 61 66 80 76 66 69 74 71 63 52 43 36 38 52 57 56 60 72 78 82 83 94 97 97 98 98 98 97
37 37 48 32 32 35 35 39 47 49 52 54 53 57 54 53 61 65 75 68 64 74 78 74 66 56 47 44 44 50 55 65 61 71 76 84 82 98 95 97 97 95 92 85
49 47 40 42 38 45 49 41 56 58 60 62 64 63 65 72 63 71 67 64 67 74 80 71 63 55 51 48 51 52 62 68 68 70 74 86 94 92 97 96 97 93 89 85
55 67 65 47 51 55 58 51 64 76 76 82 85 76 67 79 80 89 79 71 70 80 78 68 59 56 55 53 55 56 60 66 72 68 72 78 90 84 93 92 90 86 83 74
60 75 60 52 61 67 85 74 78 85 87 89 88 94 95 86 81 68 62 64 72 76 65 62 60 57 60 59 61 60 62 67 72 77 74 76 84 94 86 87 80 77 75 71
56 68 71 65 59 77 86 90 90 84 79 89 92 87 88 94 87 78 68 68 76 68 62 63 60 61 60 63 67 65 67 71 73 76 82 76 76 78 76 74 69 70 69 65
58 56 56 63 73 84 82 79 71 77 84 98 98 96 91 91 90 86 81 84 82 70 59 62 64 65 66 67 73 74 74 77 77 71 79 85 73 65 67 65 66 64 62 58
58 57 63 72 72 72 77 75 66 77 90 98 97 97 98 94 97 91 92 95 87 72 66 66 69 70 67 70 81 80 82 81 81 72 68 76 72 64 59 56 53 52 51 44
59 59 62 72 69 73 71 62 67 84 92 97 92 93 98 96 96 98 96 95 89 81 72 72 75 70 70 75 85 88 87 82 83 81 64 61 57 52 47 44 40 36 35 35
66 65 68 64 62 70 68 56 70 82 87 91 93 97 97 97 98 97 97 93 90 85 73 78 76 72 71 80 88 87 86 86 78 65 66 63 56 49 39 36 33 27 24 20
65 63 68 65 63 72 64 60 67 75 86 94 98 97 98 96 98 97 98 96 92 79 76 80 74 73 73 94 91 86 79 72 65 59 55 51 45 42 38 34 29 18 14 13
58 60 66 64 63 68 72 58 67 76 81 86 89 95 97 98 98 98 98 92 84 76 80 78 74 73 79 82 73 66 60 57 53 50 45 40 36 32 29 25 23 20 14 11
55 62 69 67 67 68 74 61 61 71 80 84 89 94 98 98 97 95 84 80 78 80 79 75 74 87 81 71 62 56 51 45 41 38 29 27 23 21 21 20 18 18 14 9
54 60 67 69 71 72 76 69 64 62 72 82 89 91 87 82 76 76 78 79 80 82 79 78 84 80 71 58 48 40 36 33 27 23 20 20 20 19 19 18 18 17 17 10
55 60 68 70 74 76 80 82 80 73 70 69 70 72 73 74 76 81 84 88 86 82 85 75 67 59 49 41 38 28 24 16 15 17 19 20 19 19 19 19 18 18 17 11
57 60 66 70 73 76 81 87 87 88 89 90 89 91 93 93 94 97 97 92 86 78 69 56 43 36 31 26 23 19 16 16 17 19 18 16 19 20 20 19 19 19 18 13
59 62 66 69 73 78 81 85 85 86 87 88 88 90 93 94 96 94 88 79 70 61 50 38 32 25 21 15 14 15 15 17 19 18 18 20 23 21 19 19 18 17 19 19
61 64 67 71 74 77 79 82 84 85 85 86 88 89 91 93 87 80 71 61 52 37 30 23 18 14 13 13 14 16 18 16 16 18 22 22 22 19 16 13 15 21 20 18
57 63 69 73 77 80 83 86 89 91 92 93 91 87 75 61 51 49 40 31 27 20 16 15 14 15 17 18 18 17 16 18 21 20 21 19 15 13 13 19 19 15 15 16
46 53 64 70 75 80 85 90 92 93 92 80 66 59 52 47 40 32 26 21 17 16 14 12 14 16 17 17 18 17 17 16 16 15 14 14 14 14 14 14 14 15 15 14
42 42 46 51 54 57 64 67 68 64 55 53 51 53 51 42 34 26 22 19 16 14 13 14 16 17 18 18 18 18 18 17 16 15 14 15 15 15 15 14 14 14 15 16
38 38 39 39 41 40 37 36 33 32 34 43 44 39 36 32 25 21 22 21 17 13 14 17 18 18 19 19 19 20 19 17 16 16 16 16 16 16 15 15 14 15 16 18
34 33 34 34 33 34 33 29 27 28 32 37 40 39 38 30 24 22 23 22 19 16 18 19 18 19 20 21 22 21 20 19 18 18 17 17 17 16 16 15 15 16 17 18
31 31 31 31 30 30 31 32 31 32 34 37 34 45 37 33 29 25 27 24 22 21 21 20 17 19 21 23 24 23 22 21 20 19 19 18 18 17 16 16 16 16 17 18
30 32 32 31 31 32 32 32 33 37 38 34 36 47 48 42 37 35 33 31 24 22 22 19 17 18 23 25 26 25 24 23 22 21 20 20 19 19 18 17 17 17 18 18

GFSNGP_prec_cthk_285.txt.gz
RH
25 21 21 21 21 22 28 30 36 30 33 35 40 45 52 57 62 63 66 77 79 82 75 62 67 81 78 70 62 54 57 59 61 68 84 76 76 71 82 95 96 83 77 76
27 23 23 23 22 29 30 32 32 37 39 47 47 56 61 69 68 71 71 76 96 94 87 76 73 76 80 73 67 56 59 63 64 70 82 84 75 74 82 89 88 96 86 81
35 25 25 33 30 31 34 37 41 49 55 52 49 56 66 63 54 61 71 68 83 99 97 89 82 73 70 65 57 53 63 68 68 68 76 84 80 75 76 77 88 77 76 82
41 34 43 32 31 33 38 43 50 53 56 63 67 52 46 42 58 70 80 85 94 97 97 97 95 75 61 52 48 56 66 71 73 72 76 84 81 79 76 81 74 60 73 71
41 48 37 33 36 36 37 49 54 54 58 61 47 36 47 60 68 71 71 84 95 97 95 93 94 76 66 57 51 59 68 74 76 77 76 81 85 77 70 69 67 69 70 66
46 52 52 34 34 36 35 40 51 55 60 52 48 56 49 54 64 71 82 87 91 90 94 97 90 81 71 61 49 59 70 76 81 81 81 80 82 80 67 58 51 56 59 64
48 57 50 42 41 38 50 46 49 56 50 48 58 69 63 68 74 72 87 97 98 97 98 96 92 80 72 62 52 64 73 78 82 80 76 73 66 69 70 69 53 44 43 49
51 59 59 46 40 48 52 52 51 47 44 53 54 57 64 76 84 88 92 93 97 98 94 94 84 79 76 61 58 70 75 76 76 76 78 74 67 60 48 54 45 36 36 41
46 48 51 48 47 49 48 45 49 44 46 50 49 57 70 79 88 89 89 96 98 98 96 89 83 81 73 61 66 69 70 75 75 67 61 56 50 50 56 56 47 39 34 33
42 42 48 49 46 47 43 48 46 44 47 51 54 65 74 74 77 85 91 92 92 91 90 86 85 81 64 68 76 69 69 75 75 75 64 57 53 44 34 40 37 36 33 31
38 41 46 46 45 41 45 47 45 45 50 56 60 67 71 73 75 80 86 89 91 93 93 90 83 70 74 77 74 69 78 80 71 67 66 59 51 46 39 34 31 33 30 30
47 50 50 47 44 40 49 49 48 47 50 59 66 70 71 76 77 81 86 89 91 89 84 77 72 76 74 69 70 76 72 69 62 57 51 45 42 41 40 40 31 22 21 23
46 48 45 46 44 42 52 53 54 54 55 60 65 73 72 74 76 78 77 76 73 73 74 76 69 64 62 66 69 63 51 50 45 43 42 38 34 29 27 23 13 10 10 12
45 43 45 45 42 48 56 56 58 57 57 62 65 75 71 71 73 71 71 73 73 72 69 66 66 73 70 62 55 41 37 35 36 35 29 24 22 18 15 12 10 9 9 9
46 43 46 44 45 54 60 59 63 62 63 66 69 74 71 72 72 74 76 74 70 69 73 80 74 65 55 43 35 33 32 31 27 23 17 14 13 13 13 12 11 9 8 9
49 48 45 45 51 58 61 62 67 68 71 76 79 83 83 82 86 86 84 79 76 82 77 62 55 45 36 32 31 29 24 21 14 12 12 12 13 12 11 11 9 8 8 10
47 46 44 48 54 58 62 68 72 77 79 79 82 86 88 87 84 82 80 81 76 65 53 47 43 37 31 29 23 19 14 12 12 12 12 11 11 11 10 9 9 9 10 11
44 40 46 50 54 60 66 71 76 80 78 78 84 87 88 87 83 78 73 65 49 37 33 31 28 25 22 18 14 13 13 13 12 12 12 11 11 11 11 11 11 10 10 12
39 44 47 51 57 61 65 71 75 76 79 85 89 89 89 86 81 72 52 36 32 30 28 23 21 18 16 15 14 14 13 12 12 11 12 12 12 12 12 12 11 10 9 11
39 40 46 52 57 63 70 74 78 81 86 89 90 90 87 78 64 48 40 35 30 24 24 22 22 22 18 16 15 14 13 13 12 12 12 12 13 13 13 13 12 12 10 10
36 39 45 50 54 56 59 64 71 78 85 84 72 72 67 60 47 37 35 33 30 27 28 25 21 19 18 16 15 15 14 14 13 13 14 14 14 13 13 13 13 14 12 10
34 38 40 42 43 44 47 49 51 54 58 61 54 54 49 40 35 33 35 32 26 23 23 23 24 23 20 18 17 16 16 15 15 15 15 15 14 14 14 14 14 14 14 13
35 34 35 37 36 36 36 37 37 35 29 31 42 52 52 40 34 29 24 22 21 21 27 30 29 25 22 20 18 18 17 17 17 17 16 15 15 15 14 14 14 14 14 14
33 32 33 35 35 34 33 32 27 24 26 30 30 35 50 39 29 24 20 24 23 27 34 33 29 26 23 21 21 20 20 19 19 19 18 17 16 16 16 16 15 15 15 15
29 29 31 31 31 32 32 27 23 24 29 35 39 35 42 44 32 24 30 25 27 33 29 27 27 25 24 24 23 23 22 22 21 21 20 19 18 18 18 17 17 16 15 14
28 27 27 28 28 29 29 25 21 24 29 33 37 42 42 38 32 21 31 30 33 31 25 24 23 25 26 26 26 26 25 24 24 23 22 22 22 21 21 20 19 18 17 16
27 27 29 32 33 33 29 24 23 24 28 30 33 38 42 37 33 27 35 38 36 30 20 15 20 25 26 28 29 29 28 27 27 27 25 25 25 25 24 23 21 20 19 17

GFSNGP_prec_cthk_291.txt.gz
RH
20 21 23 23 22 20 20 22 26 24 32 40 40 39 39 37 33 30 34 42 45 52 58 65 78 91 95 98 89 79 69 65 63 66 71 83 88 73 74 87 85 89 87 85
24 21 23 25 22 22 22 22 26 34 38 42 42 42 37 33 32 36 44 49 52 56 60 71 80 89 98 94 85 78 73 68 69 69 75 88 81 66 58 75 68 82 88 86
30 27 25 22 21 21 28 33 35 37 42 41 41 37 35 36 39 45 50 52 57 62 63 74 86 91 92 88 81 77 70 70 72 71 78 84 72 59 58 61 61 76 77 71
39 30 26 21 24 25 32 37 38 40 42 42 41 38 33 39 46 50 54 54 60 68 74 85 87 87 86 80 77 72 69 71 72 69 80 79 75 74 67 67 54 49 49 57
40 44 27 24 27 33 36 38 39 43 41 42 39 34 35 45 45 55 55 60 63 71 75 81 82 81 79 75 73 71 68 68 68 76 82 74 66 58 51 53 56 51 41 41
45 42 44 27 31 35 37 41 43 42 42 40 39 38 39 47 50 56 56 61 63 68 73 74 76 77 75 73 68 64 67 66 63 72 68 62 63 62 60 54 49 49 46 38
47 52 40 29 33 36 44 41 42 42 41 39 40 39 44 51 53 55 58 59 60 63 69 74 74 73 69 62 60 59 53 50 58 56 53 51 47 45 44 44 50 48 47 43
48 53 44 33 37 40 40 42 42 42 40 40 41 43 48 54 53 56 58 58 57 60 63 62 62 61 62 66 65 57 57 55 52 51 46 45 36 34 32 33 34 34 34 32
41 41 36 37 38 39 39 39 42 42 40 40 44 46 49 55 56 57 59 58 55 54 57 59 62 66 66 63 66 67 58 54 48 44 42 41 41 38 34 29 31 35 31 28
42 41 42 40 40 40 41 45 45 42 41 44 47 50 52 54 59 59 63 58 54 54 57 62 66 67 71 69 63 59 47 44 45 40 31 28 23 20 19 20 20 17 16 16
47 48 45 42 42 44 43 46 43 42 44 48 50 53 55 56 59 61 62 58 55 56 64 70 67 59 51 48 53 45 41 33 28 23 20 16 12 10 9 10 13 14 17 21
41 35 35 37 41 42 47 45 43 46 49 53 54 55 58 58 59 63 64 62 62 67 66 64 60 45 35 33 33 33 28 20 14 12 11 10 9 8 8 8 10 14 21 26
32 31 35 40 45 50 49 47 45 48 51 54 56 57 61 64 65 68 73 73 71 62 60 54 41 34 30 29 25 22 14 13 11 11 10 10 9 8 8 9 11 15 22 28
36 38 41 44 47 53 52 46 44 50 55 57 57 62 68 70 76 80 87 80 66 61 51 37 31 30 28 23 16 12 12 11 11 11 11 10 10 9 9 9 10 13 20 28
37 39 43 46 50 53 49 44 47 52 59 62 65 71 73 78 81 86 87 74 67 52 30 28 26 27 22 18 14 12 11 11 11 11 11 11 10 9 8 8 9 11 14 21
45 47 48 50 52 50 45 45 50 57 63 65 69 74 79 81 83 85 80 79 58 36 32 25 24 22 21 18 14 13 12 12 12 12 12 11 10 10 9 9 8 9 10 13
49 50 53 51 49 46 44 48 53 62 66 68 73 77 80 83 84 83 83 64 47 36 28 21 22 21 20 17 14 13 13 13 13 13 12 11 11 11 11 10 9 9 9 10
51 54 50 46 44 46 45 49 59 63 65 69 75 80 82 85 88 83 61 49 37 31 24 22 21 22 20 17 15 14 14 13 13 13 12 12 13 12 12 12 11 10 9 9
55 53 49 44 44 44 47 52 56 59 63 67 71 78 83 85 81 63 49 36 31 24 22 24 24 24 22 17 16 15 15 15 14 13 13 14 14 15 14 13 13 11 10 9
57 52 44 42 42 44 47 49 51 54 59 64 69 74 80 66 61 52 36 32 27 24 28 26 27 26 23 17 17 16 16 16 15 14 14 16 17 17 16 15 14 13 12 11
53 46 38 38 38 40 42 43 46 47 50 61 68 69 56 43 42 37 36 27 25 32 28 31 33 27 20 18 18 18 17 17 16 16 17 19 19 18 18 16 15 14 13 13
47 36 34 34 34 36 37 39 42 40 38 51 51 44 35 37 39 33 27 33 33 26 37 37 32 26 20 20 19 19 19 18 18 19 21 22 21 20 19 18 17 15 14 13
37 32 32 31 32 33 34 37 39 37 35 36 43 42 44 40 38 41 39 30 26 41 37 33 30 23 22 22 21 21 20 20 21 22 23 24 24 23 22 20 19 17 15 14
33 31 30 31 33 33 33 35 34 31 31 33 36 46 43 35 51 32 25 24 38 38 34 30 27 24 24 24 23 22 22 24 25 26 27 28 27 26 24 22 21 19 17 15
31 29 28 29 31 31 32 33 28 27 28 28 30 43 47 47 32 24 20 35 42 35 31 28 26 26 26 26 25 24 25 26 27 28 30 30 30 29 27 25 24 22 19 16
30 27 26 28 31 31 31 30 25 25 25 28 32 36 44 33 25 29 30 39 32 32 26 24 26 27 27 27 26 25 24 24 25 26 28 30 32 33 31 29 28 26 23 19
30 27 27 31 31 31 31 28 25 23 24 28 34 34 39 33 26 34 33 37 35 22 18 21 23 25 27 27 26 25 23 23 23 25 26 28 30 33 34 33 31 30 27 23

GFSNGP_prec_cthk_297.txt.gz
RH
24 23 28 26 23 24 26 23 23 22 24 29 34 36 35 32 34 35 34 36 39 41 42 40 45 47 48 49 50 50 48 49 51 56 60 56 59 60 56 51 58 48 50 48
29 33 32 29 24 26 28 28 27 26 28 33 38 36 34 34 37 36 35 37 41 43 42 42 44 44 46 49 48 48 49 47 50 49 45 42 41 44 49 50 56 51 42 42
28 32 25 22 22 26 27 28 26 30 30 37 37 36 35 37 38 38 36 38 42 44 44 44 43 42 43 46 46 46 45 45 41 37 39 34 31 31 38 36 43 48 46 40
36 30 30 22 27 29 29 31 33 33 35 39 41 40 37 38 38 38 37 42 47 47 46 44 40 39 43 42 44 43 40 34 32 34 35 36 35 28 31 35 38 38 38 45
43 37 27 26 32 32 32 30 32 35 40 44 43 39 40 40 40 40 41 45 49 47 46 43 40 42 45 45 43 37 35 33 27 25 20 20 19 23 25 30 41 43 39 43
49 38 33 25 33 33 33 33 35 38 41 42 41 37 36 40 41 43 45 50 51 48 42 44 45 48 46 45 40 33 28 23 19 16 15 15 15 17 20 25 32 36 37 40
49 47 36 32 35 35 37 29 37 41 43 44 41 38 40 42 45 46 49 53 50 46 43 48 51 50 41 38 36 29 20 17 13 10 8 8 9 10 13 19 24 27 31 32
48 52 45 35 37 35 33 37 40 43 43 45 43 41 43 45 47 50 54 52 50 46 49 57 52 39 37 35 33 24 18 15 11 9 8 8 9 11 15 20 23 27 31 31
45 40 38 36 34 36 38 40 42 44 45 43 41 44 47 46 51 54 56 51 52 50 55 59 47 33 32 29 22 19 15 13 11 10 9 8 9 11 15 19 22 25 29 33
42 37 37 36 37 39 42 43 47 48 45 43 46 49 49 52 55 55 55 55 54 55 60 56 46 27 27 21 19 16 13 11 11 10 9 9 9 10 13 17 21 24 28 33
41 39 39 38 39 42 43 46 47 46 45 47 48 50 53 56 57 54 55 56 60 62 59 53 39 25 25 18 16 13 12 11 11 10 9 9 9 9 11 14 17 22 27 31
40 37 39 40 40 42 44 45 45 46 50 49 50 53 56 58 57 56 56 64 66 60 56 45 33 24 23 17 15 13 12 11 11 10 9 9 9 9 10 11 13 18 24 31
39 37 38 39 40 41 43 45 48 52 53 51 53 56 58 60 59 60 64 68 64 60 48 36 30 23 22 17 15 12 12 12 11 10 10 10 10 9 9 10 11 13 18 26
41 41 42 42 43 46 48 49 52 56 54 53 55 58 60 62 62 67 67 68 64 54 35 33 29 23 20 17 16 14 12 12 11 11 11 11 11 10 10 10 10 11 13 18
43 43 45 47 48 49 51 53 56 54 50 54 58 61 63 62 66 67 68 66 59 38 30 31 28 23 21 20 18 13 13 12 12 12 13 13 12 12 12 12 11 10 11 14
48 50 51 50 51 52 56 57 53 48 51 57 61 63 61 64 68 66 64 64 48 31 34 30 29 23 23 22 17 14 13 13 13 14 14 14 14 13 14 13 11 10 9 12
45 48 49 52 54 57 57 51 49 50 57 60 61 60 60 65 68 63 66 57 32 35 32 28 25 26 29 23 18 15 14 14 14 15 15 15 15 15 14 13 13 12 10 11
52 54 55 56 57 55 49 50 53 57 58 59 56 56 60 64 64 64 60 41 31 36 32 27 24 32 27 23 17 16 15 16 16 17 17 16 16 16 14 14 13 13 11 11
56 57 58 63 56 47 50 54 54 53 53 51 52 55 60 62 66 57 49 35 32 32 30 24 34 31 25 22 18 17 17 18 19 19 19 19 18 17 16 15 14 13 12 11
60 60 66 59 47 51 54 51 49 47 44 45 50 55 59 64 57 54 42 39 31 27 23 33 36 28 24 20 19 19 19 21 22 22 23 22 21 19 17 16 15 14 14 12
65 68 62 51 51 51 47 45 40 37 41 46 51 56 60 51 60 52 46 37 33 25 34 41 31 26 22 21 20 20 22 24 25 26 27 26 24 21 19 17 16 15 14 14
67 65 55 49 47 44 40 36 32 35 42 45 48 46 35 39 41 45 40 31 25 36 46 34 28 24 22 22 22 23 25 26 27 27 28 29 27 25 23 20 18 17 16 14
61 54 47 45 43 39 34 33 30 33 38 42 43 33 30 37 44 38 26 30 38 47 36 30 27 24 24 24 23 24 24 26 27 26 26 28 31 30 27 24 21 19 18 17
57 53 46 41 38 34 32 32 32 31 34 41 40 34 32 30 33 43 42 38 49 40 33 30 27 26 25 25 23 22 23 24 25 23 22 24 27 32 33 30 25 22 20 19
57 51 44 38 37 32 30 31 33 29 30 35 35 34 31 38 42 39 35 47 43 35 30 29 28 27 26 25 23 22 22 23 22 21 20 22 24 26 32 35 32 27 25 23
55 48 41 38 35 30 29 31 32 29 30 31 32 33 30 36 33 30 37 43 38 29 27 27 28 27 26 25 24 22 22 22 21 20 20 21 22 23 26 32 36 34 30 28
55 49 43 38 31 29 29 30 31 28 29 29 30 29 34 29 24 27 35 33 32 24 22 24 25 25 25 25 24 24 21 20 19 18 19 21 23 24 24 26 32 36 36 34

GFSNGP_prec_cthk_300.txt.gz
RH
22 22 24 23 21 21 24 22 23 18 21 23 31 32 36 37 40 40 42 42 38 39 41 43 42 39 40 43 40 40 40 35 33 35 37 39 37 34 39 42 43 42 45 43
28 30 29 27 23 23 23 24 23 23 24 25 32 35 38 40 41 42 43 40 38 40 43 45 40 39 39 40 38 35 32 29 27 25 24 22 25 29 32 35 42 37 39 44
28 31 28 27 25 23 23 23 24 25 27 31 34 38 39 40 42 43 43 42 43 44 45 46 39 39 37 38 35 31 29 24 21 21 20 18 19 22 25 28 30 32 36 37
34 30 44 30 27 28 27 27 27 29 31 34 36 40 40 42 43 41 41 41 43 47 48 44 39 39 41 40 36 28 22 21 19 18 15 16 14 15 20 23 27 31 33 35
48 35 27 24 31 30 29 27 30 31 33 36 39 40 40 43 44 44 42 42 45 49 49 42 43 45 39 36 34 26 22 21 20 17 11 12 14 19 23 25 29 31 34 34
52 51 39 33 32 31 30 31 30 32 34 38 40 38 42 46 47 46 44 45 49 51 49 44 45 45 33 35 36 30 24 22 21 17 10 9 15 23 26 29 33 36 35 36
49 57 41 33 34 33 35 35 32 34 37 40 43 44 46 46 48 48 49 49 51 52 49 45 44 41 32 32 31 27 24 19 18 16 16 15 18 21 24 27 31 34 39 41
47 49 48 34 36 34 35 33 36 38 41 43 46 44 47 49 50 50 52 52 54 54 50 48 44 43 32 25 26 23 15 12 11 10 14 16 17 18 21 24 27 30 34 38
41 40 38 35 35 36 35 37 38 41 45 47 49 46 50 52 51 52 55 55 56 55 51 50 49 40 27 20 16 15 13 12 10 11 15 14 15 16 18 21 25 28 32 37
44 40 39 35 35 37 36 39 42 45 49 50 46 50 52 52 54 55 56 57 57 55 53 48 39 26 29 20 16 15 13 14 16 15 14 14 13 14 16 14 18 25 28 36
46 41 38 37 36 39 41 43 45 48 49 48 49 52 54 54 56 57 58 60 60 58 48 40 31 25 25 19 16 23 17 16 16 14 14 14 14 9 9 10 12 17 23 28
42 41 38 38 39 39 41 43 45 47 50 50 52 54 55 56 57 57 61 64 62 51 46 36 27 25 26 19 17 20 21 17 12 14 15 15 15 16 11 9 11 13 18 27
42 38 39 38 39 39 41 44 47 51 54 56 57 56 57 59 60 61 64 64 54 50 38 29 24 27 22 19 18 20 19 14 14 14 13 13 14 16 13 10 10 11 15 24
43 41 43 41 42 43 46 50 53 56 57 58 54 54 58 61 64 64 65 59 54 46 30 26 24 26 21 20 21 21 17 13 13 13 13 13 15 14 12 11 11 10 14 21
44 44 44 44 45 50 53 57 59 60 59 54 55 57 61 63 65 65 64 56 50 38 25 24 25 28 22 23 23 22 17 14 14 14 13 13 15 14 15 15 14 12 15 20
46 46 47 48 53 55 58 60 62 60 53 51 58 62 64 65 65 63 58 55 48 28 26 24 28 26 26 28 23 22 16 15 16 15 14 14 14 13 14 13 13 12 14 19
46 49 52 55 57 59 62 62 59 52 52 57 62 63 63 65 63 58 57 51 37 29 25 26 25 25 31 25 24 20 16 17 17 17 16 16 15 14 14 13 12 12 12 16
49 51 55 59 61 63 64 57 53 54 57 62 60 58 60 62 60 57 55 46 30 27 25 29 23 30 29 25 23 18 18 19 20 21 20 18 17 16 14 13 13 12 11 13
54 57 61 61 65 65 54 53 57 58 56 55 56 56 57 59 57 55 48 36 30 31 33 26 29 32 27 25 22 19 20 21 23 23 23 21 19 17 15 14 13 13 12 11
57 61 62 66 64 54 55 58 56 53 50 50 51 52 55 56 55 48 39 36 40 36 28 27 36 31 27 25 21 22 23 25 26 25 26 24 22 19 17 16 15 14 13 12
56 59 63 63 54 56 57 53 48 45 46 47 49 52 56 58 52 43 43 42 33 28 25 43 33 27 26 23 22 24 25 26 25 26 29 29 27 24 21 19 18 16 15 13
56 62 62 54 51 51 48 44 39 41 43 42 44 50 55 48 51 45 42 41 31 27 48 36 29 27 25 24 24 24 25 24 22 22 24 28 31 29 25 23 21 19 17 16
57 56 52 48 49 45 41 37 33 36 39 42 43 41 30 31 39 42 34 28 32 51 38 31 29 26 25 24 23 24 24 22 20 21 22 24 28 32 31 28 25 23 21 19
58 53 48 47 46 43 37 34 31 33 36 42 44 34 30 33 28 30 32 40 51 40 34 31 28 26 25 23 22 22 22 22 20 20 21 22 24 27 32 33 31 27 25 23
60 53 46 44 46 43 39 34 31 31 33 39 42 34 26 29 35 35 36 45 45 34 31 29 27 27 26 23 22 21 21 21 19 19 21 22 23 24 27 31 34 34 31 28
59 53 46 42 43 45 39 35 32 32 30 33 37 33 26 30 34 32 33 44 37 29 28 28 28 27 26 24 24 22 21 19 18 18 20 22 23 24 25 26 29 34 35 34
58 54 50 44 41 40 38 37 33 32 30 30 32 29 29 30 34 30 31 40 35 25 24 25 25 26 25 24 23 23 21 18 17 17 19 20 23 24 25 26 26 28 32 35

GFSNGP_prec_cthk_303.txt.gz
RH
27 24 23 22 22 21 21 24 25 24 23 24 26 32 33 31 34 36 38 40 42 41 40 41 43 42 39 40 35 30 30 28 21 19 18 18 19 26 29 30 32 28 28 32
28 24 27 25 25 23 23 22 21 23 24 28 30 30 29 33 36 37 39 42 42 41 42 44 43 40 38 41 35 31 29 28 21 18 18 20 19 26 30 32 30 28 29 32
31 27 26 27 27 23 20 21 25 27 31 32 30 30 33 35 37 38 42 43 42 43 45 46 43 40 43 36 35 32 29 27 21 18 18 19 19 22 29 32 31 31 33 33
34 31 46 27 21 23 23 25 29 29 30 31 32 34 33 36 38 42 42 41 43 44 47 45 44 45 42 33 35 32 28 25 22 19 18 19 21 23 30 33 34 35 36 38
48 36 29 24 24 26 29 30 31 31 32 31 34 32 38 44 45 44 40 43 45 48 50 48 48 46 42 34 36 31 27 23 22 19 18 19 21 22 30 32 33 35 37 39
57 58 38 30 30 30 30 33 34 32 35 35 34 37 47 47 46 43 43 45 47 50 48 52 49 47 44 34 31 29 25 23 21 19 17 19 20 27 29 30 32 35 38 42
42 54 41 33 37 32 37 45 37 32 36 36 39 42 46 47 46 46 46 48 50 49 52 52 51 50 42 27 27 27 24 22 22 19 16 17 19 23 25 28 31 34 37 41
45 50 55 38 36 36 44 37 37 35 39 40 44 47 49 48 48 48 50 51 53 53 54 53 51 48 31 28 26 25 20 15 17 21 16 15 16 17 17 20 24 28 33 39
46 47 46 40 40 40 39 39 39 41 43 44 47 49 48 49 50 51 53 55 56 55 55 55 47 36 23 22 23 18 18 18 19 23 16 14 13 15 16 17 20 25 30 35
46 43 44 46 44 45 41 39 43 44 43 45 46 48 50 53 54 54 56 56 58 57 59 53 36 25 22 16 20 20 23 22 27 18 17 15 16 14 14 10 13 21 24 32
50 50 52 51 47 45 41 40 42 43 46 47 48 51 54 57 56 56 55 57 59 58 56 41 26 23 21 19 26 25 23 27 22 16 15 15 16 14 10 9 10 14 19 26
58 57 52 50 42 42 42 41 44 46 48 50 53 54 57 59 57 56 57 59 60 52 48 34 21 23 18 24 25 26 28 25 20 17 17 16 17 17 16 10 11 14 19 28
49 47 45 42 41 42 43 44 46 48 51 52 54 57 60 58 57 58 61 62 57 51 41 25 21 23 24 22 22 23 25 26 20 18 18 18 19 18 17 17 17 19 21 29
44 43 41 40 42 44 46 47 48 52 54 55 57 61 60 57 58 60 63 59 55 49 32 22 22 21 20 24 26 28 28 23 20 18 18 20 19 18 17 16 15 19 22 28
43 44 46 46 45 46 48 51 55 56 56 59 61 60 56 59 62 64 63 58 54 41 23 19 23 26 23 24 29 24 24 21 21 21 19 19 18 18 17 15 15 17 21 25
45 46 48 49 50 53 56 57 59 59 62 63 57 57 60 64 65 65 62 57 50 37 21 21 21 22 24 33 28 28 21 18 20 23 22 20 19 19 18 17 16 16 18 21
42 46 49 49 51 54 57 60 62 63 61 54 56 61 64 66 66 66 59 53 45 28 22 23 22 24 29 28 29 29 23 21 22 25 20 20 21 20 20 19 18 18 17 16
45 45 47 52 55 59 61 63 62 55 54 57 62 63 64 63 64 60 55 51 38 26 29 22 25 25 31 26 26 22 24 25 25 24 23 21 22 22 19 19 18 16 14 11
48 49 53 56 58 59 64 61 54 55 58 60 60 60 60 60 57 56 55 48 29 28 23 29 28 31 30 27 25 23 26 28 27 26 27 26 24 23 18 17 16 14 13 11
47 47 50 53 55 59 52 49 54 55 55 54 53 53 53 56 56 57 51 38 36 36 36 29 31 35 29 28 23 26 28 25 24 25 28 28 26 23 21 19 17 15 13 12
46 49 51 52 54 49 49 51 49 48 46 47 46 48 53 57 60 49 39 40 41 38 33 34 40 32 30 24 25 26 24 21 21 22 25 29 30 28 25 22 20 18 16 14
49 49 50 53 47 44 46 46 44 41 41 39 40 46 54 59 52 41 50 49 38 30 37 40 33 31 26 25 28 26 23 19 20 21 23 25 28 31 30 28 25 23 20 18
53 52 51 47 42 42 41 42 37 37 39 36 36 42 44 46 38 42 40 39 34 45 43 36 32 27 25 25 24 24 21 19 19 21 22 23 25 27 30 33 31 28 25 23
58 57 53 46 46 42 39 39 37 37 37 36 38 39 35 32 35 31 33 34 46 43 36 33 28 25 25 24 22 22 21 19 19 20 21 22 23 24 26 29 33 34 31 28
64 61 55 49 45 43 41 36 36 38 35 33 38 39 25 30 26 31 35 41 45 34 33 29 25 25 25 24 22 21 20 18 18 18 20 22 23 24 25 26 27 31 34 34
68 67 58 50 44 42 40 37 36 39 34 32 36 40 26 30 37 39 33 40 38 30 29 26 25 25 26 24 24 23 20 18 17 17 18 20 22 24 25 25 26 26 29 34
72 68 61 55 46 42 40 36 35 40 37 32 34 36 32 26 29 35 31 35 36 27 24 25 25 25 25 24 23 22 20 19 17 17 17 19 21 23 24 25 26 27 27 27

GFSNGP_prec_cthk_306.txt.gz
RH
26 24 21 21 21 20 20 20 22 22 24 26 31 39 40 37 33 34 35 35 38 40 39 40 40 38 36 35 32 30 27 25 21 23 22 23 23 23 28 29 30 33 35 35
26 23 21 21 23 23 21 21 19 20 22 28 35 35 35 32 32 33 35 38 39 41 40 42 40 38 38 35 33 28 25 26 25 24 22 22 23 24 26 30 32 35 36 37
30 23 25 28 23 22 19 20 20 24 31 35 35 33 32 32 35 35 38 40 40 42 42 42 42 41 39 37 34 25 25 21 26 22 22 21 23 23 25 29 31 34 37 38
36 30 47 26 23 20 20 21 21 25 28 35 35 34 33 33 36 41 41 41 41 41 44 44 43 43 41 39 33 26 23 22 26 23 22 21 22 22 26 29 32 34 37 38
53 38 30 27 24 25 24 26 25 30 34 37 36 32 38 39 42 43 41 40 42 44 46 46 47 45 45 38 27 23 22 22 24 24 20 21 25 23 26 29 30 32 38 39
53 58 45 31 28 29 26 29 32 35 38 40 39 36 44 43 45 44 40 42 44 47 47 49 49 47 48 33 23 23 22 23 24 22 21 28 21 22 20 24 28 30 35 39
47 57 46 36 32 35 34 45 39 39 38 43 41 41 43 44 44 42 43 44 47 48 50 50 50 50 43 28 22 22 18 19 21 21 28 18 16 18 15 19 24 26 32 36
46 52 58 40 40 35 45 40 41 41 44 44 42 44 44 45 45 45 45 46 49 52 52 51 51 44 36 19 20 15 16 21 22 29 24 16 13 15 11 12 17 21 26 31
46 48 46 44 46 46 43 42 47 48 48 45 46 47 48 49 50 50 50 52 53 54 53 54 49 33 23 16 16 17 20 24 31 27 23 17 14 11 10 10 13 19 23 29
45 48 46 47 47 49 49 49 50 48 47 46 48 52 53 53 54 53 54 56 55 55 56 55 40 30 18 18 18 18 22 29 29 26 18 17 16 15 11 10 13 18 23 31
49 49 48 52 56 56 53 46 43 43 45 46 51 54 55 56 56 57 57 57 57 57 57 45 35 23 17 17 20 20 27 29 27 22 18 17 18 18 15 13 15 20 27 32
61 60 64 63 60 49 48 46 44 43 45 47 52 55 57 58 59 58 57 59 58 58 50 41 32 18 19 21 17 21 30 29 26 20 19 19 18 18 15 15 17 21 28 34
58 63 60 55 47 44 45 44 43 45 51 55 55 57 59 61 62 60 61 60 62 54 47 38 24 18 22 18 18 25 27 28 22 17 20 19 17 16 14 14 17 21 24 33
53 48 44 42 41 41 42 45 47 51 54 54 55 59 62 65 60 59 60 63 60 53 45 31 20 18 19 20 24 31 30 27 21 21 20 20 18 16 16 15 15 18 20 26
47 45 43 44 44 46 47 48 50 52 54 56 58 61 63 58 59 63 66 65 58 50 39 23 20 24 19 19 29 27 26 20 23 24 22 21 18 17 17 16 15 14 15 18
47 46 47 43 44 46 47 50 53 53 57 60 63 62 57 59 64 66 68 61 55 45 32 21 20 21 21 32 34 32 24 20 23 25 22 21 18 18 17 15 14 13 12 14
43 41 43 44 46 49 51 53 54 56 59 59 54 56 61 65 68 66 64 58 52 40 28 21 21 22 24 32 33 33 24 24 25 27 23 20 20 19 17 15 14 13 12 10
43 43 46 49 53 55 56 54 53 55 50 49 52 56 60 63 64 63 58 51 45 33 26 23 22 23 27 32 31 26 25 26 27 28 25 22 23 21 18 16 14 12 11 10
51 50 52 56 56 55 50 51 51 45 47 50 53 55 57 59 57 54 51 49 42 31 26 25 23 27 33 31 30 25 26 25 26 27 27 27 25 23 21 19 17 15 13 11
53 51 52 53 53 51 53 50 43 44 47 46 49 50 53 53 53 53 53 49 41 36 28 26 32 35 33 33 25 26 23 22 24 24 26 29 29 28 25 23 21 18 16 14
49 48 49 50 50 50 47 39 39 40 37 42 41 45 48 53 52 53 45 46 41 35 39 32 37 36 34 25 26 26 21 20 21 22 24 26 28 30 31 28 25 23 21 18
47 47 47 48 50 44 36 38 37 34 36 40 40 42 44 48 52 44 43 44 47 38 32 41 36 36 27 25 29 25 21 19 20 21 23 24 26 27 30 32 32 29 27 24
50 49 51 50 45 38 38 37 35 33 35 33 35 38 42 46 44 34 33 34 31 34 45 37 35 28 24 24 24 23 20 18 19 20 21 23 24 25 26 29 31 34 33 30
58 56 55 52 46 41 39 36 33 33 33 32 35 35 35 35 30 29 30 27 37 42 35 34 29 23 24 23 22 22 19 18 18 18 20 22 23 24 25 26 26 29 34 36
66 62 59 56 51 45 43 37 35 31 31 32 33 36 32 28 23 25 29 36 43 33 32 30 22 22 24 23 23 21 19 17 16 17 18 20 22 23 24 25 27 27 27 32
67 66 64 63 55 48 43 39 37 31 30 31 31 33 35 25 25 30 32 39 41 30 29 24 23 22 23 24 23 23 21 19 17 17 17 19 21 22 24 24 25 27 28 28
70 68 67 65 60 54 46 41 38 34 31 32 31 29 35 30 26 31 30 33 38 31 24 23 23 23 23 24 23 21 20 18 17 17 17 18 20 21 23 24 25 26 28 30